THORAD DELTA 1 DEB, 8159

Orbit data source: Space-Track

THORAD DELTA 1 DEB, 8159 is space debris in SSO originally from a launch on Fri, 15 Nov 1974 UTC launched from the Air Force Western Test Range (AFWTR). Debris objects in space refer to the collection of defunct objects orbiting the Earth. Examples of debris include non-operational satellites, rocket bodies, and fragments generated from explosions, collisions, or faulty payload assembly.

Loading next visibility...
Identifier
8159, 1974-089Z
Orbit
SSO
Country
Flag of USUS
Related business
Manufacturer
Unknown
Mission
Spacecraft
Bus & Motor
Unknown
Mass
Unknown
Launch date (UTC)
1974-11-15 (51 years ago)
Launch vehicle
Unknown
Launch site
Air Force Western Test Range (AFWTR)
Object type
Payload
Rocket body
Debris
Shape & HBR
Unknown shape, 1.1 m
Radar Cross Section
Small (<0.1 m²)

Expand to show TLE details & history
Last TLE update: 1 day ago

TLE from 1 day ago
0 THORAD DELTA 1 DEB
1 08159U 74089Z   25351.63326313  .00000372  00000-0  21480-2 0  9993
2 08159 101.3958  11.0839 0028672 221.2463 138.6453 12.68193904335788
Epoch: 2025-12-17T15:11Z
TLE epoch observation values (Epoch: 2025-12-17T15:11:53.934Z)
Latitude
0.00003°
Longitude
56.60885°
Altitude
1,408.665 km
Speed
7.148 km/s
True Right ascension
00h 44m 20s
True Declination
0° 00' 00"
Sunlit
Object was in daylight at epoch
Visualization orbit readout
Latitude
Unknown
Longitude
Unknown
Altitude
Unknown
Speed
Unknown
Apparent Right ascension
Unknown
Apparent Declination
Unknown
Sunlit
N/A
Visualization observer readout
Local Sidereal Time
16:20:47
Azimuth
Unknown
Elevation
Unknown
Doppler factor
Unknown
Orbital elements
Apogee altitude
1,409.072 km
Perigee altitude
1,364.545 km
Semi-major axis
7,764.945 km
Eccentricity
0.00287
Inclination
101.3958°
RAAN
11.0839°
Arg. of periapsis
221.2463°
True anomaly
138.8618°
Mean anomaly
138.6453°
Eccentric anomaly
138.75361°
Mean motion
3.17202 °/min
Orbital period
113.49 mins
BSTAR
0.002148
Loading maneuver chart data...
Computing Atmospheric mass density...

Documentation

Showing up to 5 results
|